Volver al catálogo

STARLINK-32816

ActivoComunicacionesVLEO
NORAD 63050·PAYLOAD·🇺🇸 United States

Lanzado Feb 18, 2025 desde Cape Canaveral Space Force Station

Loading…

Próximos Pases (próximas 24 horas)

TLE

ActualizadoSource: CelesTrak SupGP

Época: Sep 15, 2026, 02:36 UTC

1 63050C 25034X   26258.10881944  .00021499  00000+0  63520-3 0  2587
2 63050  53.1579 107.2120 0001243  79.2882 228.1946 15.34379835    16

Sigue STARLINK-32816 en tiempo real con AllMySat

Download on the App Store